North Myrtle Beach, SC

1:49 PM EDT on October 17, 2017 (GMT -0400)
Grand Strand

Weather History for KCRE - September, 2013

Change the Weather History Date:

Friday, September 27, 2013

  Actual Average Record
Temperature  
Mean Temperature 70 °F 72 °F  
Max Temperature 80 °F 81 °F 91 °F (2017)
Min Temperature 59 °F 63 °F 52 °F (2001)
Degree Days  
Heating Degree Days 0 0  
Month to date heating degree days 0 0  
Since 1 July heating degree days 0 0  
Cooling Degree Days 5 7  
Month to date cooling degree days 269 287  
Year to date cooling degree days 1720 1763  
Growing Degree Days 18 (Base 50)    
Moisture  
Dew Point 57 °F    
Average Humidity 70    
Maximum Humidity 93    
Minimum Humidity 46    
Precipitation  
Precipitation 0.00 in 0.20 in 2.72 in (2010)
Month to date precipitation 1.36 5.73  
Year to date precipitation 42.12 41.08  
Sea Level Pressure  
Sea Level Pressure 30.04 in    
Wind  
Wind Speed 10 mph (NNE)    
Max Wind Speed 21 mph    
Max Gust Speed 26 mph    
Visibility 10 miles    
Events      
T = Trace of Precipitation, MM = Missing Value Source: NWS Daily Summary

Daily Weather History Graph

Daily Weather History Graph

Search for Another Location

Airport or City:

Trip Planner

Search our weather history database for the weather conditions in past years. The results will help you decide how hot, cold, wet, or windy it might be!

Date:

Astronomy

Sep. 27, 2013 Rise Set
Actual Time 7:06 AM EDT 7:04 PM EDT
Civil Twilight 6:41 AM EDT 7:29 PM EDT
Nautical Twilight 6:12 AM EDT 7:58 PM EDT
Astronomical Twilight 5:43 AM EDT 8:27 PM EDT
Moon 12:16 AM EDT (9/27) 2:26 PM EDT (9/27)
Length of Visible Light 12h 47m
Length of Day
11h 57m
Last Quarter, 45% of the Moon is Illuminated
Sep 27
Last Quarter
Oct 4
New
Oct 11
First Quarter
Oct 18
Full
Oct 26
Last Quarter

Hourly Weather History & Observations

Time (EDT) Temp. Dew Point Humidity Pressure Visibility Wind Dir Wind Speed Gust Speed Precip Events Conditions
12:53 AM 63.0 °F 57.9 °F 84% 29.98 in 10.0 mi NNE 6.9 mph - N/A   Clear
1:53 AM 63.0 °F 57.9 °F 84% 29.98 in 10.0 mi NNE 8.1 mph - N/A   Clear
2:53 AM 60.1 °F 57.9 °F 93% 29.97 in 10.0 mi NNE 5.8 mph - N/A   Clear
3:53 AM 60.1 °F 57.9 °F 93% 29.97 in 10.0 mi NNE 9.2 mph - N/A   Clear
4:53 AM 61.0 °F 57.9 °F 90% 29.97 in 10.0 mi NNE 9.2 mph - N/A   Clear
5:53 AM 61.0 °F 57.9 °F 90% 29.99 in 10.0 mi North 9.2 mph - N/A   Clear
6:53 AM 59.0 °F 57.0 °F 93% 30.01 in 10.0 mi North 8.1 mph - N/A   Clear
7:53 AM 60.1 °F 57.9 °F 93% 30.03 in 10.0 mi North 9.2 mph - N/A   Clear
8:53 AM 63.0 °F 59.0 °F 87% 30.04 in 10.0 mi NNE 9.2 mph - N/A   Mostly Cloudy
9:04 AM 64.4 °F 59.0 °F 83% 30.04 in 10.0 mi North 9.2 mph - N/A   Mostly Cloudy
9:53 AM 69.1 °F 60.1 °F 73% 30.06 in 10.0 mi NNE 13.8 mph 25.3 mph N/A   Mostly Cloudy
10:53 AM 73.0 °F 57.9 °F 59% 30.07 in 10.0 mi NE 13.8 mph 25.3 mph N/A   Clear
11:53 AM 75.9 °F 59.0 °F 56% 30.07 in 10.0 mi NNE 13.8 mph - N/A   Partly Cloudy
12:53 PM 77.0 °F 59.0 °F 54% 30.06 in 10.0 mi NNE 11.5 mph 20.7 mph N/A   Partly Cloudy
1:53 PM 77.0 °F 59.0 °F 54% 30.05 in 10.0 mi NE 9.2 mph 18.4 mph N/A   Overcast
2:53 PM 75.9 °F 57.9 °F 54% 30.04 in 10.0 mi NNE 11.5 mph - N/A   Mostly Cloudy
3:53 PM 77.0 °F 57.0 °F 50% 30.04 in 10.0 mi NNE 12.7 mph 21.9 mph N/A   Partly Cloudy
4:53 PM 77.0 °F 55.0 °F 47% 30.04 in 10.0 mi NNE 12.7 mph - N/A   Scattered Clouds
5:53 PM 75.9 °F 54.0 °F 46% 30.05 in 10.0 mi NE 12.7 mph - N/A   Scattered Clouds
6:53 PM 72.0 °F 55.0 °F 55% 30.07 in 10.0 mi NNE 8.1 mph 17.3 mph N/A   Scattered Clouds
7:53 PM 66.9 °F 55.0 °F 66% 30.09 in 10.0 mi NNE 6.9 mph - N/A   Clear
8:53 PM 64.9 °F 55.9 °F 73% 30.10 in 10.0 mi NE 8.1 mph - N/A   Clear
9:53 PM 63.0 °F 55.0 °F 75% 30.12 in 10.0 mi NE 5.8 mph - N/A   Clear
10:53 PM 61.0 °F 55.0 °F 81% 30.13 in 10.0 mi NNE 5.8 mph - N/A   Clear
11:53 PM 61.0 °F 55.0 °F 81% 30.13 in 10.0 mi NNE 8.1 mph - N/A   Clear